Time,TemperatureF,DewpointF,PressureIn,WindDirection,WindDirectionDegrees,WindSpeedMPH,WindSpeedGustMPH,Humidity,HourlyPrecipIn,Conditions,Clouds,dailyrainin,SoftwareType,DateUTC
2013-02-01 00:06:00,40.6,32.7,30.35,North,0,7.8,-999.0,73,-99.99,,,0.00,Acu-Link.com,2013-02-01 06:06:00,
2013-02-01 00:21:00,40.3,30.9,30.35,North,0,6.3,-999.0,69,-99.99,,,0.00,Acu-Link.com,2013-02-01 06:21:00,
2013-02-01 00:36:00,39.6,30.6,30.36,NNE,22,5.8,-999.0,70,-99.99,,,0.00,Acu-Link.com,2013-02-01 06:36:00,
2013-02-01 00:51:00,39.0,30.1,30.36,NNE,22,4.7,-999.0,70,-99.99,,,0.00,Acu-Link.com,2013-02-01 06:51:00,
2013-02-01 01:07:00,38.3,29.0,30.37,NNE,22,6.3,-999.0,69,-99.99,,,0.00,Acu-Link.com,2013-02-01 07:07:00,
2013-02-01 01:22:00,37.8,28.2,30.38,ENE,67,3.1,-999.0,68,-99.99,,,0.00,Acu-Link.com,2013-02-01 07:22:00,
2013-02-01 01:37:00,37.2,27.6,30.38,NNE,22,8.3,-999.0,68,-99.99,,,0.00,Acu-Link.com,2013-02-01 07:37:00,
2013-02-01 01:52:00,36.7,28.2,30.38,SSE,157,4.7,-999.0,71,-99.99,,,0.00,Acu-Link.com,2013-02-01 07:52:00,
2013-02-01 02:08:00,35.8,27.7,30.38,ENE,67,7.4,-999.0,72,-99.99,,,0.00,Acu-Link.com,2013-02-01 08:08:00,
2013-02-01 02:23:00,35.4,27.0,30.38,WNW,292,4.7,-999.0,71,-99.99,,,0.00,Acu-Link.com,2013-02-01 08:23:00,
2013-02-01 02:38:00,34.9,26.8,30.39,ENE,67,2.7,-999.0,72,-99.99,,,0.00,Acu-Link.com,2013-02-01 08:38:00,
2013-02-01 02:53:00,34.3,26.3,30.39,SE,135,4.7,-999.0,72,-99.99,,,0.00,Acu-Link.com,2013-02-01 08:53:00,
2013-02-01 03:17:00,34.2,25.8,30.39,ENE,67,5.1,-999.0,71,-99.99,,,0.00,Acu-Link.com,2013-02-01 09:17:00,
2013-02-01 03:32:00,33.6,25.6,30.39,SE,135,3.1,-999.0,72,-99.99,,,0.00,Acu-Link.com,2013-02-01 09:32:00,
2013-02-01 03:47:00,33.4,25.4,30.39,North,0,5.8,-999.0,72,-99.99,,,0.00,Acu-Link.com,2013-02-01 09:47:00,
2013-02-01 04:02:00,32.5,24.9,30.40,ENE,67,1.6,-999.0,73,-99.99,,,0.00,Acu-Link.com,2013-02-01 10:02:00,
2013-02-01 04:17:00,32.0,25.0,30.41,NE,45,3.8,-999.0,75,-99.99,,,0.00,Acu-Link.com,2013-02-01 10:17:00,
2013-02-01 04:33:00,31.6,25.6,30.40,NE,45,3.1,-999.0,78,-99.99,,,0.00,Acu-Link.com,2013-02-01 10:33:00,
2013-02-01 04:48:00,31.3,24.6,30.40,ESE,112,4.3,-999.0,76,-99.99,,,0.00,Acu-Link.com,2013-02-01 10:48:00,
2013-02-01 05:03:00,31.3,24.3,30.40,North,0,2.7,-999.0,75,-99.99,,,0.00,Acu-Link.com,2013-02-01 11:03:00,
2013-02-01 05:18:00,30.7,23.5,30.40,NE,45,4.3,-999.0,74,-99.99,,,0.00,Acu-Link.com,2013-02-01 11:18:00,
2013-02-01 05:33:00,30.2,22.9,30.40,NNW,337,2.7,-999.0,74,-99.99,,,0.00,Acu-Link.com,2013-02-01 11:33:00,
2013-02-01 05:49:00,30.0,23.1,30.41,NNW,337,2.7,-999.0,75,-99.99,,,0.00,Acu-Link.com,2013-02-01 11:49:00,
2013-02-01 06:04:00,29.7,22.7,30.41,ENE,67,4.7,-999.0,75,-99.99,,,0.00,Acu-Link.com,2013-02-01 12:04:00,
2013-02-01 06:19:00,29.3,22.4,30.41,WNW,292,2.7,-999.0,75,-99.99,,,0.00,Acu-Link.com,2013-02-01 12:19:00,
2013-02-01 06:34:00,28.9,22.3,30.42,ESE,112,2.7,-999.0,76,-99.99,,,0.00,Acu-Link.com,2013-02-01 12:34:00,
2013-02-01 06:50:00,28.8,22.2,30.42,ENE,67,3.1,-999.0,76,-99.99,,,0.00,Acu-Link.com,2013-02-01 12:50:00,
2013-02-01 07:05:00,28.4,22.4,30.42,South,180,3.8,-999.0,78,-99.99,,,0.00,Acu-Link.com,2013-02-01 13:05:00,
2013-02-01 07:20:00,28.2,22.6,30.43,NE,45,2.2,-999.0,79,-99.99,,,0.00,Acu-Link.com,2013-02-01 13:20:00,
2013-02-01 07:35:00,28.0,22.4,30.43,ESE,112,3.1,-999.0,79,-99.99,,,0.00,Acu-Link.com,2013-02-01 13:35:00,
2013-02-01 07:50:00,28.6,22.6,30.44,NNE,22,4.7,-999.0,78,-99.99,,,0.00,Acu-Link.com,2013-02-01 13:50:00,
2013-02-01 08:06:00,30.4,23.1,30.44,NE,45,0.0,-999.0,74,-99.99,,,0.00,Acu-Link.com,2013-02-01 14:06:00,
2013-02-01 08:21:00,32.5,24.2,30.44,NE,45,4.3,-999.0,71,-99.99,,,0.00,Acu-Link.com,2013-02-01 14:21:00,
2013-02-01 08:36:00,34.2,25.1,30.43,East,90,6.7,-999.0,69,-99.99,,,0.00,Acu-Link.com,2013-02-01 14:36:00,
2013-02-01 08:51:00,36.0,26.1,30.42,East,90,6.7,-999.0,67,-99.99,,,0.00,Acu-Link.com,2013-02-01 14:51:00,
2013-02-01 09:06:00,37.6,26.5,30.42,South,180,5.1,-999.0,64,-99.99,,,0.00,Acu-Link.com,2013-02-01 15:06:00,
2013-02-01 09:22:00,39.7,27.8,30.42,ESE,112,3.8,-999.0,62,-99.99,,,0.00,Acu-Link.com,2013-02-01 15:22:00,
2013-02-01 09:37:00,42.1,29.2,30.43,North,0,6.3,-999.0,60,-99.99,,,0.00,Acu-Link.com,2013-02-01 15:37:00,
2013-02-01 09:52:00,43.9,30.9,30.43,ESE,112,2.7,-999.0,60,-99.99,,,0.00,Acu-Link.com,2013-02-01 15:52:00,
2013-02-01 10:07:00,45.3,31.8,30.43,ENE,67,7.8,-999.0,59,-99.99,,,0.00,Acu-Link.com,2013-02-01 16:07:00,
2013-02-01 10:22:00,47.7,33.2,30.43,ESE,112,4.7,-999.0,57,-99.99,,,0.00,Acu-Link.com,2013-02-01 16:22:00,
2013-02-01 10:38:00,49.5,34.0,30.42,NE,45,4.3,-999.0,55,-99.99,,,0.00,Acu-Link.com,2013-02-01 16:38:00,
2013-02-01 10:53:00,50.5,34.1,30.42,SSE,157,3.8,-999.0,53,-99.99,,,0.00,Acu-Link.com,2013-02-01 16:53:00,
2013-02-01 11:08:00,52.2,34.6,30.41,SE,135,4.3,-999.0,51,-99.99,,,0.00,Acu-Link.com,2013-02-01 17:08:00,
2013-02-01 11:23:00,52.0,34.4,30.41,SSW,202,5.1,-999.0,51,-99.99,,,0.00,Acu-Link.com,2013-02-01 17:23:00,
2013-02-01 11:38:00,53.2,35.1,30.40,ESE,112,4.7,-999.0,50,-99.99,,,0.00,Acu-Link.com,2013-02-01 17:38:00,
2013-02-01 11:54:00,57.2,36.6,30.39,ESE,112,3.1,-999.0,46,-99.99,,,0.00,Acu-Link.com,2013-02-01 17:54:00,
2013-02-01 12:09:00,59.0,37.7,30.37,ESE,112,6.3,-999.0,45,-99.99,,,0.00,Acu-Link.com,2013-02-01 18:09:00,
2013-02-01 12:24:00,58.6,36.8,30.36,East,90,4.7,-999.0,44,-99.99,,,0.00,Acu-Link.com,2013-02-01 18:24:00,
2013-02-01 12:39:00,59.0,37.7,30.35,East,90,3.1,-999.0,45,-99.99,,,0.00,Acu-Link.com,2013-02-01 18:39:00,
2013-02-01 12:55:00,61.5,38.8,30.34,ENE,67,3.1,-999.0,43,-99.99,,,0.00,Acu-Link.com,2013-02-01 18:55:00,
2013-02-01 13:10:00,59.2,37.3,30.33,NNE,22,4.3,-999.0,44,-99.99,,,0.00,Acu-Link.com,2013-02-01 19:10:00,
2013-02-01 13:25:00,60.6,38.6,30.33,SW,225,2.2,-999.0,44,-99.99,,,0.00,Acu-Link.com,2013-02-01 19:25:00,
2013-02-01 13:40:00,60.1,37.5,30.31,WSW,247,5.8,-999.0,43,-99.99,,,0.00,Acu-Link.com,2013-02-01 19:40:00,
2013-02-01 13:55:00,61.5,39.4,30.31,ESE,112,3.8,-999.0,44,-99.99,,,0.00,Acu-Link.com,2013-02-01 19:55:00,
2013-02-01 14:11:00,61.0,38.3,30.31,SSE,157,4.7,-999.0,43,-99.99,,,0.00,Acu-Link.com,2013-02-01 20:11:00,
2013-02-01 14:26:00,62.1,38.7,30.30,SW,225,4.3,-999.0,42,-99.99,,,0.00,Acu-Link.com,2013-02-01 20:26:00,
2013-02-01 14:41:00,62.8,40.0,30.29,South,180,7.4,-999.0,43,-99.99,,,0.00,Acu-Link.com,2013-02-01 20:41:00,
2013-02-01 14:56:00,63.1,39.1,30.29,WNW,292,2.7,-999.0,41,-99.99,,,0.00,Acu-Link.com,2013-02-01 20:56:00,
2013-02-01 15:11:00,63.1,39.7,30.28,SSE,157,2.7,-999.0,42,-99.99,,,0.00,Acu-Link.com,2013-02-01 21:11:00,
2013-02-01 15:27:00,63.0,38.9,30.27,South,180,6.3,-999.0,41,-99.99,,,0.00,Acu-Link.com,2013-02-01 21:27:00,
2013-02-01 15:42:00,63.0,39.5,30.26,SSE,157,4.7,-999.0,42,-99.99,,,0.00,Acu-Link.com,2013-02-01 21:42:00,
2013-02-01 15:57:00,62.4,39.6,30.26,ENE,67,6.3,-999.0,43,-99.99,,,0.00,Acu-Link.com,2013-02-01 21:57:00,
2013-02-01 16:12:00,62.4,39.6,30.25,SW,225,4.7,-999.0,43,-99.99,,,0.00,Acu-Link.com,2013-02-01 22:12:00,
2013-02-01 16:27:00,62.4,40.2,30.25,South,180,6.7,-999.0,44,-99.99,,,0.00,Acu-Link.com,2013-02-01 22:27:00,
2013-02-01 16:43:00,62.1,39.3,30.24,SE,135,5.1,-999.0,43,-99.99,,,0.00,Acu-Link.com,2013-02-01 22:43:00,
2013-02-01 16:58:00,61.7,40.1,30.24,SSW,202,8.3,-999.0,45,-99.99,,,0.00,Acu-Link.com,2013-02-01 22:58:00,
2013-02-01 17:13:00,61.2,39.1,30.23,WSW,247,3.1,-999.0,44,-99.99,,,0.00,Acu-Link.com,2013-02-01 23:13:00,
2013-02-01 17:28:00,60.6,38.6,30.23,NNW,337,7.4,-999.0,44,-99.99,,,0.00,Acu-Link.com,2013-02-01 23:28:00,
2013-02-01 17:43:00,59.4,39.1,30.23,West,270,4.3,-999.0,47,-99.99,,,0.00,Acu-Link.com,2013-02-01 23:43:00,
2013-02-01 17:59:00,57.0,39.1,30.22,WSW,247,0.0,-999.0,51,-99.99,,,0.00,Acu-Link.com,2013-02-01 23:59:00,
2013-02-01 18:14:00,54.7,39.3,30.22,West,270,1.6,-999.0,56,-99.99,,,0.00,Acu-Link.com,2013-02-02 00:14:00,
2013-02-01 18:29:00,53.1,39.1,30.22,SSE,157,0.0,-999.0,59,-99.99,,,0.00,Acu-Link.com,2013-02-02 00:29:00,
2013-02-01 18:44:00,51.8,38.8,30.22,NNE,22,1.1,-999.0,61,-99.99,,,0.00,Acu-Link.com,2013-02-02 00:44:00,
2013-02-01 18:59:00,50.9,38.8,30.22,South,180,0.0,-999.0,63,-99.99,,,0.00,Acu-Link.com,2013-02-02 00:59:00,
2013-02-01 19:15:00,50.2,38.9,30.21,SW,225,0.0,-999.0,65,-99.99,,,0.00,Acu-Link.com,2013-02-02 01:15:00,
2013-02-01 19:30:00,50.0,39.1,30.21,SSE,157,0.0,-999.0,66,-99.99,,,0.00,Acu-Link.com,2013-02-02 01:30:00,
2013-02-01 19:45:00,49.5,39.0,30.21,South,180,1.6,-999.0,67,-99.99,,,0.00,Acu-Link.com,2013-02-02 01:45:00,
2013-02-01 20:00:00,49.3,38.8,30.21,SW,225,0.0,-999.0,67,-99.99,,,0.00,Acu-Link.com,2013-02-02 02:00:00,
2013-02-01 20:15:00,48.6,38.5,30.21,ESE,112,0.0,-999.0,68,-99.99,,,0.00,Acu-Link.com,2013-02-02 02:15:00,
2013-02-01 20:31:00,48.2,38.9,30.21,ESE,112,1.1,-999.0,70,-99.99,,,0.00,Acu-Link.com,2013-02-02 02:31:00,
2013-02-01 20:46:00,47.7,38.7,30.21,East,90,0.0,-999.0,71,-99.99,,,0.00,Acu-Link.com,2013-02-02 02:46:00,
2013-02-01 21:01:00,46.9,38.7,30.21,West,270,0.0,-999.0,73,-99.99,,,0.00,Acu-Link.com,2013-02-02 03:01:00,
2013-02-01 21:16:00,46.8,38.9,30.21,East,90,0.0,-999.0,74,-99.99,,,0.00,Acu-Link.com,2013-02-02 03:16:00,
2013-02-01 21:32:00,46.8,39.3,30.22,East,90,2.2,-999.0,75,-99.99,,,0.00,Acu-Link.com,2013-02-02 03:32:00,
2013-02-01 21:47:00,46.6,39.1,30.22,ENE,67,2.7,-999.0,75,-99.99,,,0.00,Acu-Link.com,2013-02-02 03:47:00,
2013-02-01 22:02:00,46.2,39.1,30.22,SW,225,0.0,-999.0,76,-99.99,,,0.00,Acu-Link.com,2013-02-02 04:02:00,
2013-02-01 22:17:00,47.3,40.1,30.22,NNW,337,2.2,-999.0,76,-99.99,,,0.00,Acu-Link.com,2013-02-02 04:17:00,
2013-02-01 22:32:00,47.8,40.0,30.22,NW,315,2.7,-999.0,74,-99.99,,,0.00,Acu-Link.com,2013-02-02 04:32:00,
2013-02-01 22:47:00,48.4,40.1,30.22,NE,45,2.2,-999.0,73,-99.99,,,0.00,Acu-Link.com,2013-02-02 04:47:00,
2013-02-01 23:02:00,49.1,40.8,30.22,South,180,7.8,-999.0,73,-99.99,,,0.00,Acu-Link.com,2013-02-02 05:02:00,
2013-02-01 23:18:00,51.6,41.8,30.22,SSE,157,8.3,-999.0,69,-99.99,,,0.00,Acu-Link.com,2013-02-02 05:18:00,
2013-02-01 23:33:00,52.5,42.3,30.21,WSW,247,5.8,-999.0,68,-99.99,,,0.00,Acu-Link.com,2013-02-02 05:33:00,
2013-02-01 23:48:00,52.7,42.4,30.21,SW,225,5.1,-999.0,68,-99.99,,,0.00,Acu-Link.com,2013-02-02 05:48:00,